This is the latest recevied weather packets stored in our database for station/object ZL3GL-4. If no packets are shown the sender has not sent any weather packets the latest 10 day(s).
| Time | Temp. | Humidity | Pressure | Rain* | Wind** | Luminosity | Snow |
|---|---|---|---|---|---|---|---|
| 1777704657 | 10.56° C | 100% | 1033.6 hPa | 0 mm | 0.89 m/s, 316° | - | - |
| 1777703815 | 10.56° C | 100% | 1033.5 hPa | 0 mm | 1.34 m/s, 322° | - | - |
| 1777702971 | 10.56° C | 100% | 1033.5 hPa | 0 mm | 0.89 m/s, 352° | - | - |
| 1777702127 | 10.56° C | 100% | 1033.4 hPa | 0 mm | 0 m/s | - | - |
| 1777701283 | 11.11° C | 100% | 1033.2 hPa | 0 mm | 0 m/s | - | - |
| 1777700443 | 11.11° C | 100% | 1033.2 hPa | 0 mm | 0.89 m/s, 332° | - | - |
| 1777699596 | 11.67° C | 100% | 1033.2 hPa | 0 mm | 1.79 m/s, 340° | - | - |
| 1777698752 | 12.22° C | 99% | 1033.4 hPa | 0 mm | 0 m/s | - | - |
| 1777697909 | 12.22° C | 99% | 1033.4 hPa | 0 mm | 0.89 m/s, 34° | - | - |
| 1777697065 | 12.78° C | 99% | 1033.3 hPa | 0 mm | 1.34 m/s, 56° | - | - |
| 1777696222 | 12.78° C | 98% | 1033.2 hPa | 0 mm | 1.34 m/s, 79° | - | - |
| 1777695379 | 12.78° C | 97% | 1033.3 hPa | 0 mm | 1.79 m/s, 103° | - | - |
| 1777694535 | 13.33° C | 97% | 1033.1 hPa | 0 mm | 1.34 m/s, 69° | - | - |
| 1777693690 | 13.33° C | 96% | 1033 hPa | 0 mm | 2.24 m/s, 79° | - | - |
| 1777692850 | 13.33° C | 95% | 1033 hPa | 0 mm | 1.34 m/s, 134° | - | - |
| 1777691164 | 13.89° C | 94% | 1032.7 hPa | 0 mm | 2.24 m/s, 80° | - | - |
| 1777690321 | 13.89° C | 93% | 1032.5 hPa | 0 mm | 1.79 m/s, 77° | - | - |
| 1777689475 | 14.44° C | 95% | 1032.7 hPa | 0 mm | 0.89 m/s, 46° | - | - |
| 1777688630 | 14.44° C | 93% | 1032.4 hPa | 0 mm | 2.24 m/s, 62° | - | - |
| 1777687785 | 14.44° C | 95% | 1032.6 hPa | 0 mm | 1.34 m/s, 359° | - | - |
| 1777686100 | 13.89° C | 95% | 1032.6 hPa | 0 mm | 1.34 m/s, 49° | - | - |
| 1777685255 | 13.89° C | 95% | 1032.7 hPa | 0 mm | 1.79 m/s, 72° | - | - |
| 1777684414 | 13.89° C | 96% | 1032.6 hPa | 0 mm | 0.89 m/s, 66° | - | - |
| 1777683572 | 13.33° C | 96% | 1032.6 hPa | 0 mm | 1.79 m/s, 111° | - | - |
| 1777682726 | 13.33° C | 96% | 1032.7 hPa | 0 mm | 1.79 m/s, 146° | - | - |
* Rain latest hour (hover to see other rain measurements)
** Current wind speed in m/s (hover to see current wind gust speed)